* Astronomy

Members Login
Username 
 
Password 
    Remember Me  
Post Info TOPIC: Asteroid 2015 XA352


L

Posts: 131433
Date:
Asteroid 2015 XA352
Permalink  
 


Orbital elements:
2015 XA352                                          PHA, Earth MOID = 0.0073 AU
Epoch 2016 Jan. 13.0 TT = JDT 2457400.5                 MPC
M 196.82345              (2000.0)            P               Q
n   0.68309265     Peri.   19.08366     -0.23307089     +0.96993497
a   1.2768787      Node   237.49450     -0.90266594     -0.24257089
e   0.2073583      Incl.    4.76322     -0.36176258     -0.01963477
P   1.44           H   21.5           G   0.15           U   9

MPEC 2015 - X167



__________________
Page 1 of 1  sorted by
 
Quick Reply

Please log in to post quick replies.



Create your own FREE Forum
Report Abuse
Powered by ActiveBoard